Japan Airlines Virtual Airport Information Service

Tokyo Haneda International Airport

ICAO: RJTT Country: Japan
Latitude: 35.5522 Longitude: 139.78
Latest Arrival : JAL698 (RJFM-RJTT) Latest Departure : JAL691 (RJTT-RJFM)


WX CaptureLIVE
Data provided by noaa.gov | Fetched at 06:26:36

METAR : RJTT 010600Z 08008KT 9999 FEW020 SCT/// 22/18 Q1009 NOSIG RMK 1CU020 A2982

TAF : RJTT 010505Z 0106/0212 08006KT 9999 FEW030 BECMG 0107/0109 01006KT BECMG 0200/0203 12008KT


Runway Data for RJTT
Data provided by openaviationdata.com

Runway ID Mag Var Hdg Length Elevation Surface ILS Freq ILS Id ILS Slope
4 -7 41° 8208 ft 21 ft Asphalt -- -- --
16L -7 156° 9851 ft 21 ft Asphalt -- -- --
16R -7 156° 9851 ft 21 ft Asphalt -- -- --
22 -7 221° 8208 ft 21 ft Asphalt 108.1 IAD 3
34L -7 336° 9851 ft 21 ft Asphalt 111.7 IHA 3
34R -7 336° 9851 ft 21 ft Asphalt 108.9 ITC 3

Tokyo Haneda International Airport, Japan
Use only for reference purposes



Not for navigational purposes.